Location: Walkway Over the Hudson
(41.7107°N, 73.9509°W)
Time: 01:15:23
(UTC-05:00)

ISS - Visible Passes

Search period start: 11 November 2024 00:00
Search period end: 21 November 2024 00:00
Orbit: 407 x 418 km, 51.6° (Epoch: 11 November)

Date Brightness Start Highest point End Pass type
(mag) Time Alt. Az. Time Alt. Az. Time Alt. Az.
11 Nov -1.0 18:46:27 10° SSW 18:46:46 12° SSW 18:46:46 12° SSW visible
12 Nov -1.8 17:57:38 10° S 17:59:34 17° SE 17:59:34 17° SE visible
13 Nov -2.2 18:43:06 10° SW 18:45:05 33° SW 18:45:05 33° SW visible
14 Nov -3.3 17:53:31 10° SSW 17:56:43 43° SE 17:57:36 34° E visible
15 Nov -2.3 17:04:14 10° S 17:06:59 24° SE 17:09:45 10° ENE visible
15 Nov -2.4 18:40:17 10° WSW 18:42:48 37° WNW 18:42:48 37° WNW visible
16 Nov -3.7 17:50:12 10° WSW 17:53:32 71° NNW 17:55:04 29° NE visible
17 Nov -3.6 17:00:18 10° SW 17:03:36 65° SE 17:06:56 10° ENE visible
17 Nov -1.8 18:37:41 10° WNW 18:40:02 23° NW 18:40:02 23° NW visible
18 Nov -2.5 17:47:16 10° W 17:50:20 33° NNW 17:52:05 20° NNE visible
19 Nov -3.2 16:56:57 10° WSW 17:00:13 51° NNW 17:03:29 10° NE visible
19 Nov -1.4 18:35:07 10° NW 18:36:51 17° NNW 18:36:51 17° NNW visible
20 Nov -1.8 17:44:30 10° WNW 17:47:06 21° NNW 17:48:45 15° NNE visible
